Hourly Data Report for September 05, 2017

All times are specified in Local Standard Time (LST). Add 1 hour to adjust for Daylight Saving Time where and when it is observed.

MONCTON INTL A
NEW BRUNSWICK

46°06'44.000" N
64°40'43.000" W
70.70 m
8103201
71705
YQM

Download Data

Hourly Data (September 2017)
Hourly Data Report for September 5, 2017
Temp Definition
°C
Dew Point Temp Definition
°C
Rel Hum Definition
%
Wind Dir Definition
10's deg

Wind Spd Definition
km/h
Visibility Definition
km
Stn Press Definition
kPa
Hmdx Definition


Wind Chill Definition


Weather Definition


TIME
00:00 Legend Double Dagger 15.0 10.9 76 19 10 24.1 99.98     LegendNANA
01:00 Legend Double Dagger 14.9 10.9 77 19 13 24.1 99.97     LegendNANA
02:00 Legend Double Dagger 14.6 10.7 77 18 15 24.1 99.97     Mainly Clear
03:00 Legend Double Dagger 13.2 9.9 80 12 10 24.1 99.94     LegendNANA
04:00 Legend Double Dagger 12.4 11.2 92 13 12 24.1 99.93     LegendNANA
05:00 Legend Double Dagger 14.1 12.8 92 16 15 24.1 99.89     Mainly Clear
06:00 Legend Double Dagger 14.6 13.3 92 18 16 19.3 99.91     LegendNANA
07:00 Legend Double Dagger 15.4 13.8 90 17 21 19.3 99.91     LegendNANA
08:00 Legend Double Dagger 17.9 14.2 78 17 23 24.1 99.86     Mainly Clear
09:00 Legend Double Dagger 20.4 14.2 68 22 38 24.1 99.93     LegendNANA
10:00 Legend Double Dagger 21.6 14.6 64 20 32 24.1 99.94 25   LegendNANA
11:00 Legend Double Dagger 23.2 15.1 60 19 30 24.1 99.97 27   Mainly Clear
12:00 Legend Double Dagger 24.2 15.7 58 20 36 24.1 99.93 29   LegendNANA
13:00 Legend Double Dagger 26.2 16.1 53 22 39 24.1 99.91 31   LegendNANA
14:00 Legend Double Dagger 26.1 16.2 54 22 44 24.1 99.92 31   Mainly Clear
15:00 Legend Double Dagger 25.7 16.7 57 21 35 24.1 99.97 31   LegendNANA
16:00 Legend Double Dagger 23.6 17.0 66 21 41 19.3 100.05 29   LegendNANA
17:00 Legend Double Dagger 21.7 17.3 75 21 31 19.3 100.11 27   Mostly Cloudy
18:00 Legend Double Dagger 21.6 17.6 78 21 32 24.1 100.15 27   LegendNANA
19:00 Legend Double Dagger 20.8 17.4 81 21 27 24.1 100.18 26   LegendNANA
20:00 Legend Double Dagger 20.4 17.4 83 21 17 24.1 100.23 26   Mostly Cloudy
21:00 Legend Double Dagger 20.5 17.7 84 20 19 24.1 100.27 26   LegendNANA
22:00 Legend Double Dagger 20.8 18.0 84 21 20 24.1 100.29 27   LegendNANA
23:00 Legend Double Dagger 20.7 17.9 84 20 21 24.1 100.31 27   Cloudy

Notes on Data Quality.

Legend

  • E = Estimated
  • M = Missing
  • NA = Not Available
  • ‡ = Partner data that is not subject to review by the National Climate Archives
Date modified: